When you browse on this site, cookies collect data to enhance your experience and personalize the content and advertising you see.
Visit our Privacy Policy to learn more. By continuing to use the site, you agree to this use of cookies and data.
  • En España
  • Lista de países
  • Para 7 días
  • Temperatura del agua
  • El tiempo en el mapa
  • Informadores
  • user-avatar
    Iniciar sesión

    Tiempo cada hora Oran

    Hoy, 12 Diciembre, Jueves

    Tiempo Temperatura Precipitaciones Viento Presión Humedad
    00:00 +13°C° 0 mm 3 mps 758 mmHg 91%
    01:00 +13°C° 0.1 mm 3 mps 757 mmHg 89%
    02:00 +13°C° 0.1 mm 3 mps 757 mmHg 87%
    03:00 +12°C° 0.1 mm 3 mps 756 mmHg 86%
    04:00 +12°C° 0 mm 3 mps 756 mmHg 85%
    05:00 +12°C° 0 mm 3 mps 756 mmHg 85%
    06:00 +12°C° 0 mm 4 mps 757 mmHg 88%
    07:00 +13°C° 0 mm 5 mps 756 mmHg 83%
    08:00 +14°C° 0 mm 7 mps 756 mmHg 78%
    09:00 +13°C° 0 mm 9 mps 756 mmHg 73%
    10:00 +14°C° 0 mm 10 mps 756 mmHg 68%
    11:00 +14°C° 0 mm 11 mps 756 mmHg 63%
    12:00 +14°C° 0 mm 13 mps 755 mmHg 58%
    13:00 +14°C° 0 mm 13 mps 755 mmHg 58%
    14:00 +14°C° 0 mm 13 mps 754 mmHg 59%
    15:00 +13°C° 0 mm 13 mps 754 mmHg 59%
    16:00 +13°C° 0 mm 12 mps 754 mmHg 62%
    17:00 +12°C° 0 mm 12 mps 754 mmHg 65%
    18:00 +12°C° 0 mm 11 mps 755 mmHg 68%
    19:00 +12°C° 0 mm 12 mps 755 mmHg 68%
    20:00 +12°C° 0 mm 13 mps 755 mmHg 69%
    21:00 +12°C° 0 mm 13 mps 755 mmHg 69%
    22:00 +12°C° 0 mm 13 mps 755 mmHg 71%
    23:00 +12°C° 0 mm 13 mps 755 mmHg 72%

    Mañana, 13 Diciembre, Viernes

    Tiempo Temperatura Precipitaciones Viento Presión Humedad
    00:00 +12°C° 0 mm 13 mps 755 mmHg 73%
    01:00 +13°C° 0 mm 14 mps 754 mmHg 74%
    02:00 +13°C° 0 mm 14 mps 753 mmHg 76%
    03:00 +13°C° 0 mm 14 mps 753 mmHg 77%
    04:00 +13°C° 0 mm 14 mps 753 mmHg 76%
    05:00 +12°C° 0 mm 13 mps 753 mmHg 74%
    06:00 +12°C° 0 mm 13 mps 753 mmHg 73%
    07:00 +13°C° 0 mm 12 mps 753 mmHg 73%
    08:00 +13°C° 0 mm 11 mps 753 mmHg 73%
    09:00 +13°C° 0 mm 11 mps 754 mmHg 72%
    10:00 +14°C° 0.1 mm 12 mps 754 mmHg 74%
    11:00 +14°C° 0.1 mm 12 mps 753 mmHg 76%
    12:00 +15°C° 0.1 mm 13 mps 753 mmHg 78%
    13:00 +15°C° 0 mm 13 mps 753 mmHg 77%
    14:00 +15°C° 0 mm 13 mps 753 mmHg 76%
    15:00 +17°C° 0 mm 13 mps 753 mmHg 74%
    16:00 +15°C° 0 mm 12 mps 753 mmHg 76%
    17:00 +14°C° 0 mm 11 mps 753 mmHg 79%
    18:00 +14°C° 0 mm 10 mps 754 mmHg 81%
    19:00 +15°C° 0 mm 9 mps 754 mmHg 82%
    20:00 +13°C° 0 mm 9 mps 755 mmHg 83%
    21:00 +13°C° 0 mm 8 mps 755 mmHg 83%
    22:00 +13°C° 0 mm 8 mps 755 mmHg 84%
    23:00 +13°C° 0 mm 9 mps 755 mmHg 85%

    Pasado mañana, 14 Diciembre, Sábado

    Tiempo Temperatura Precipitaciones Viento Presión Humedad
    00:00 +13°C° 0 mm 9 mps 755 mmHg 86%
    01:00 +13°C° 0 mm 8 mps 755 mmHg 85%
    02:00 +13°C° 0 mm 8 mps 754 mmHg 85%
    03:00 +12°C° 0 mm 8 mps 754 mmHg 85%
    04:00 +12°C° 0 mm 8 mps 754 mmHg 85%
    05:00 +12°C° 0 mm 8 mps 754 mmHg 85%
    06:00 +12°C° 0 mm 7 mps 754 mmHg 85%
    07:00 +14°C° 0 mm 7 mps 754 mmHg 81%
    08:00 +14°C° 0 mm 7 mps 755 mmHg 77%
    09:00 +15°C° 0 mm 6 mps 755 mmHg 73%
    10:00 +16°C° 0 mm 6 mps 755 mmHg 66%
    11:00 +17°C° 0 mm 6 mps 754 mmHg 60%
    12:00 +19°C° 0 mm 6 mps 754 mmHg 53%
    13:00 +19°C° 0 mm 5 mps 754 mmHg 54%
    14:00 +19°C° 0 mm 5 mps 753 mmHg 55%
    15:00 +19°C° 0 mm 4 mps 753 mmHg 56%
    16:00 +18°C° 0 mm 4 mps 753 mmHg 63%
    17:00 +17°C° 0 mm 3 mps 753 mmHg 70%
    18:00 +14°C° 0 mm 3 mps 753 mmHg 78%
    19:00 +14°C° 0 mm 3 mps 754 mmHg 80%
    20:00 +14°C° 0 mm 4 mps 754 mmHg 82%
    21:00 +13°C° 0 mm 4 mps 754 mmHg 84%
    22:00 +13°C° 0 mm 4 mps 754 mmHg 84%
    23:00 +13°C° 0 mm 3 mps 754 mmHg 85%

    15 Diciembre, Domingo

    Tiempo Temperatura Precipitaciones Viento Presión Humedad
    00:00 +13°C° 0 mm 3 mps 753 mmHg 85%
    01:00 +12°C° 0 mm 3 mps 753 mmHg 84%
    02:00 +12°C° 0 mm 3 mps 753 mmHg 84%
    03:00 +12°C° 0 mm 3 mps 752 mmHg 84%
    04:00 +12°C° 0 mm 3 mps 752 mmHg 83%
    05:00 +12°C° 0 mm 2 mps 752 mmHg 83%
    06:00 +12°C° 0 mm 2 mps 752 mmHg 83%
    07:00 +14°C° 0 mm 2 mps 752 mmHg 77%
    08:00 +15°C° 0 mm 2 mps 753 mmHg 72%
    09:00 +16°C° 0 mm 2 mps 753 mmHg 66%
    10:00 +18°C° 0 mm 1 mps 753 mmHg 60%
    11:00 +19°C° 0 mm 1 mps 752 mmHg 55%
    12:00 +20°C° 0 mm 1 mps 752 mmHg 49%
    13:00 +20°C° 0 mm 1 mps 752 mmHg 50%
    14:00 +19°C° 0 mm 2 mps 751 mmHg 52%
    15:00 +19°C° 0 mm 2 mps 751 mmHg 54%
    16:00 +18°C° 0 mm 2 mps 750 mmHg 63%
    17:00 +16°C° 0 mm 1 mps 750 mmHg 71%
    18:00 +15°C° 0 mm 1 mps 750 mmHg 80%
    19:00 +14°C° 0 mm 1 mps 750 mmHg 80%
    20:00 +14°C° 0 mm 1 mps 750 mmHg 81%
    21:00 +14°C° 0 mm 1 mps 750 mmHg 81%
    22:00 +14°C° 0 mm 1 mps 750 mmHg 78%
    23:00 +14°C° 0 mm 1 mps 749 mmHg 75%

    16 Diciembre, Lunes

    Tiempo Temperatura Precipitaciones Viento Presión Humedad
    00:00 +14°C° 0 mm 1 mps 749 mmHg 73%
    01:00 +14°C° 0 mm 1 mps 749 mmHg 67%
    02:00 +14°C° 0 mm 1 mps 748 mmHg 62%
    03:00 +15°C° 0 mm 2 mps 748 mmHg 56%
    04:00 +15°C° 0 mm 2 mps 747 mmHg 52%
    05:00 +15°C° 0 mm 2 mps 747 mmHg 48%
    06:00 +15°C° 0 mm 2 mps 747 mmHg 44%
    07:00 +16°C° 0 mm 3 mps 747 mmHg 43%
    08:00 +17°C° 0 mm 3 mps 747 mmHg 42%
    09:00 +17°C° 0 mm 4 mps 747 mmHg 41%
    10:00 +19°C° 0 mm 5 mps 746 mmHg 36%
    11:00 +21°C° 0 mm 5 mps 745 mmHg 32%
    12:00 +23°C° 0 mm 6 mps 745 mmHg 27%
    13:00 +23°C° 0 mm 6 mps 744 mmHg 28%
    14:00 +22°C° 0 mm 5 mps 743 mmHg 30%
    15:00 +22°C° 0 mm 5 mps 742 mmHg 31%
    16:00 +21°C° 0 mm 5 mps 743 mmHg 34%
    17:00 +19°C° 0 mm 5 mps 743 mmHg 37%
    18:00 +17°C° 0 mm 5 mps 743 mmHg 39%
    19:00 +16°C° 0 mm 6 mps 743 mmHg 52%
    20:00 +15°C° 0 mm 7 mps 744 mmHg 64%
    21:00 +13°C° 0 mm 8 mps 744 mmHg 77%
    22:00 +12°C° 0.4 mm 8 mps 744 mmHg 77%
    23:00 +11°C° 0.4 mm 8 mps 744 mmHg 78%

    17 Diciembre, Martes

    Tiempo Temperatura Precipitaciones Viento Presión Humedad
    00:00 +11°C° 0.4 mm 9 mps 744 mmHg 79%
    01:00 +11°C° 0.9 mm 8 mps 744 mmHg 78%
    02:00 +10°C° 0.9 mm 7 mps 744 mmHg 76%
    03:00 +10°C° 0.9 mm 6 mps 744 mmHg 74%
    04:00 +10°C° 0.8 mm 6 mps 744 mmHg 77%
    05:00 +10°C° 0.8 mm 6 mps 744 mmHg 80%
    06:00 +10°C° 0.8 mm 6 mps 744 mmHg 83%
    07:00 +10°C° 1 mm 7 mps 745 mmHg 80%
    08:00 +10°C° 1 mm 9 mps 745 mmHg 78%
    09:00 +9°C° 1 mm 10 mps 746 mmHg 76%
    10:00 +11°C° 0.2 mm 10 mps 746 mmHg 72%
    11:00 +11°C° 0.2 mm 9 mps 746 mmHg 69%
    12:00 +12°C° 0.2 mm 9 mps 747 mmHg 66%
    13:00 +12°C° 0.5 mm 9 mps 747 mmHg 66%
    14:00 +12°C° 0.5 mm 9 mps 747 mmHg 65%
    15:00 +12°C° 0.5 mm 8 mps 748 mmHg 65%
    16:00 +11°C° 0.2 mm 8 mps 748 mmHg 67%
    17:00 +11°C° 0.2 mm 8 mps 749 mmHg 69%
    18:00 +10°C° 0.2 mm 8 mps 750 mmHg 72%
    19:00 +10°C° 0.1 mm 7 mps 751 mmHg 73%
    20:00 +10°C° 0.1 mm 6 mps 751 mmHg 74%
    21:00 +10°C° 0.1 mm 6 mps 752 mmHg 75%
    22:00 +10°C° 0.1 mm 5 mps 752 mmHg 76%
    23:00 +10°C° 0.1 mm 5 mps 752 mmHg 77%
    Mostrar más